Regional Weather Roundup
Issued by NWS Sterling, VA

Home | Current Version | Previous Version | Graphics & Text | Print | Product List | Glossary On
Versions: 1 2 3 4 5 6 7 8 9 10 11 12 13 14 15 16 17 18 19 20 21 22 23 24 25 26 27 28 29 30 31 32 33 34 35 36 37 38 39 40 41 42 43 44 45 46 47 48 49 50
000
ASUS41 KLWX 051310
RWRLWX

REGIONAL WEATHER ROUNDUP
NATIONAL WEATHER SERVICE BALTIMORE MD/WASHINGTON DC
900 AM EDT SUN JUL 05 2015

Note: "FAIR" indicates few or no clouds below 12,000 feet
with no significant weather and/or obstructions to visibility.
 TC=TEMPERATURE CELSIUS

 * =Non NWS site. Station does not report precipitation (e.g. rain,
    snow, etc.), thunder, or fog.

DCZ001-MDZ009-015-VAZ040>042-051-053>054-051400-
WASHINGTON METRO

CITY           SKY/WX    TMP DP  RH WIND       PRES   REMARKS
WASHINGTON NAT CLOUDY    73  66  78 NE3       30.15R
DULLES         CLOUDY    67  65  93 CALM      30.16R FOG
ANDREWS AFB    MOSUNNY   69  69 100 NE3       30.14R
FT BELVOIR     MOSUNNY   71  69  93 VRB1      30.14R
QUANTICO       MOSUNNY   73  67  81 NE7       30.16R
COLLEGE PARK*  PTSUNNY   70  68  94 CALM      30.14S
LEESBURG*      CLOUDY    68  68 100 NW6       30.17R FOG
MANASSAS*      CLOUDY    70  70 100 NE5       30.15R FOG
GAITHERSBURG*  CLOUDY    66  64  94 CALM      30.19S

$$

MDZ006>007-011-014-051400-
BALTIMORE METRO

CITY           SKY/WX    TMP DP  RH WIND       PRES   REMARKS
BWI AIRPORT    PTSUNNY   72  65  78 VRB3      30.14R
MD SCIENCE CTR   N/A     73  64  73 MISG      30.17R
MARTIN STATE   PTSUNNY   72  68  88 CALM      30.15R
ANNAPOLIS      PTSUNNY   72  67  84 CALM      30.14R
FORT MEADE*    PTSUNNY   68  68 100 CALM      30.16S

$$

MDZ012-015-019>023-051400-
MARYLAND EASTERN SHORE

CITY           SKY/WX    TMP DP  RH WIND       PRES   REMARKS
OCEAN CITY     MOSUNNY   75  68  78 NE5       30.13R
SALISBURY      MOSUNNY   74  68  81 N6        30.13R
BAY BRIDGE AP*   N/A     72  64  78 E3        30.14R
CAMBRIDGE*     PTSUNNY   73  68  83 E3        30.13R
EASTON*        MOSUNNY   72  72 100 CALM      30.18

$$

MDZ017>025-051400-
SOUTHERN MARYLAND

CITY           SKY/WX    TMP DP  RH WIND       PRES   REMARKS
PATUXENT RIVER PTSUNNY   74  69  85 E8        30.13R
ST INIGOES     NOT AVBL
LEONARDTOWN*   CLOUDY    72  68  88 CALM      30.15R

$$

MDZ003>005-051400-
NORTH CENTRAL MARYLAND

CITY           SKY/WX    TMP DP  RH WIND       PRES   REMARKS
FREDERICK*     CLOUDY    68  68 100 CALM      30.18R FOG
HAGERSTOWN APT CLOUDY    68  65  90 W3        30.16R FOG
WESTMINSTER*   PTSUNNY   66  64  94 CALM      30.16R FOG

$$

MDZ501>502-051400-
WESTERN MARYLAND

CITY           SKY/WX    TMP DP  RH WIND       PRES   REMARKS
OAKLAND*       PTSUNNY   64 N/A N/A S3        30.23S
CUMBERLAND*    PTSUNNY   68  63  83 N3        30.20R

$$

VAZ025>031-051400-
SHENANDOAH VALLEY

CITY           SKY/WX    TMP DP  RH WIND       PRES   REMARKS
WINCHESTER*    CLOUDY    70  68  94 CALM      30.17R FOG
FRONT ROYAL*   CLOUDY    68  64  88 CALM      30.16R
LURAY*         CLOUDY    70  70 100 NE3       30.17R FOG
NEW MARKET*    CLOUDY    68  67  97 NE5       30.15S
STAUNTON*      FOG       69  68  96 CALM      30.19R VSB 3/4
WAYNESBORO*    CLOUDY    67  66  97 CALM      30.18R

$$

WVZ021-048>050-054>055-051400-
EASTERN WEST VIRGINIA PANHANDLE

CITY           SKY/WX    TMP DP  RH WIND       PRES   REMARKS
MARTINSBURG    CLOUDY    68  64  87 CALM      30.17R FOG
PETERSBURG*    CLOUDY    65  63  93 CALM      30.18S FOG

$$

VAZ036>039-050-051400-
CENTRAL FOOTHILLS

CITY           SKY/WX    TMP DP  RH WIND       PRES   REMARKS
CHARLOTTESVILL CLOUDY    69  67  93 N3        30.16R FOG
CULPEPER*      CLOUDY    67  67  99 CALM      30.16R FOG
ORANGE*        FOG       70  68  94 CALM      30.16R VSB 1/2
GORDONSVILLE*  CLOUDY    68  68 100 CALM      30.15R FOG
WARRENTON*     CLOUDY    69  69 100 NE3       30.15R FOG

$$

VAZ055>057-051400-
NORTH AND CENTRAL PIEDMONT

CITY           SKY/WX    TMP DP  RH WIND       PRES   REMARKS
FREDERICKSBRG* CLOUDY    74  73  96 NE3       30.14R FOG
STAFFORD*      CLOUDY    70  68  94 NE6       30.18S FOG

$$

NCZ024-NYZ072-PAZ021-071-VAZ022-071-051400-
OTHER REGIONAL OBSERVATIONS

CITY           SKY/WX    TMP DP  RH WIND       PRES   REMARKS
NEW YORK CITY  MOSUNNY   72  60  66 W5        30.15R
PHILADELPHIA   PTSUNNY   74  59  59 VRB3      30.14R
PITTSBURGH     CLOUDY    64  56  75 CALM      30.16R
ROANOKE        CLOUDY    71  66  84 NE3       30.17R
RICHMOND       CLOUDY    71  70  96 NE5       30.14R FOG
RALEIGH        PTSUNNY   80  71  74 SW7       30.12S

$$

ANZ530>537-051400-
MARINE OBSERVATIONS

STATION/POSITION TIME  TEMP    WIND        PRES
                       AIR SEA DIR/SP/G
                 (UTC) (F)     (DEG/KT/KT) (MB)
THOMAS PT LIGHT  1300   72 77  110/  3/  4 1021.1R
BALT KEY BRIDGE  1200   70      30/  3/  3 1020.2R
COVE POINT       1200   72      80/  7/  9 1020.5R
LEWISETTA        1200   74 79   30/  2/  3 1019.5R
SOLOMONS ISLAND  1200      79                N/A
PINEY POINT      1200           30/  3/  4   N/A

$$



USA.gov is the U.S. government's official web portal to all federal, state and local government web resources and services.